This is the latest recevied weather packets stored in our database for station/object W2OBX. If no packets are shown the sender has not sent any weather packets the latest 1 day(s).
| Time | Temp. | Humidity | Pressure | Rain* | Wind** | Luminosity | Snow |
|---|---|---|---|---|---|---|---|
| 1777994963 | 22.22° C | 50% | 1015.6 hPa | 0 mm | 1.34 m/s, 140° | 83 W/m² | - |
| 1777994660 | 21.67° C | 51% | 1015.6 hPa | 0 mm | 2.68 m/s, 174° | 80 W/m² | - |
| 1777994360 | 21.11° C | 54% | 1015.6 hPa | 0 mm | 0 m/s | 64 W/m² | - |
| 1777994056 | 21.11° C | 60% | 1015.7 hPa | 0 mm | 0.45 m/s, 122° | 50 W/m² | - |
| 1777993754 | 20.56° C | 56% | 1015.8 hPa | 0 mm | 0.45 m/s, 122° | 48 W/m² | - |
| 1777993450 | 20.56° C | 59% | 1015.5 hPa | 0 mm | 0.45 m/s, 124° | 54 W/m² | - |
| 1777993144 | 20.56° C | 62% | 1015.7 hPa | 0 mm | 0.45 m/s, 122° | 63 W/m² | - |
| 1777992843 | 20.56° C | 62% | 1015.9 hPa | 0 mm | 0 m/s | 64 W/m² | - |
| 1777992540 | 20° C | 59% | 1015.7 hPa | 0 mm | 0.45 m/s, 119° | 67 W/m² | - |
| 1777992238 | 20° C | 64% | 1015.7 hPa | 0 mm | 0 m/s | 70 W/m² | - |
| 1777991935 | 20° C | 64% | 1015.8 hPa | 0 mm | 0 m/s | 67 W/m² | - |
| 1777991633 | 19.44° C | 63% | 1015.9 hPa | 0 mm | 0.45 m/s, 120° | 65 W/m² | - |
| 1777991330 | 19.44° C | 66% | 1015.8 hPa | 0 mm | 0 m/s | 66 W/m² | - |
| 1777991027 | 18.89° C | 66% | 1016.1 hPa | 0 mm | 0 m/s | 66 W/m² | - |
| 1777990724 | 18.89° C | 63% | 1015.9 hPa | 0 mm | 0.45 m/s, 118° | 62 W/m² | - |
| 1777990421 | 18.33° C | 66% | 1016.1 hPa | 0 mm | 0 m/s | 57 W/m² | - |
| 1777990118 | 17.78° C | 65% | 1015.8 hPa | 0 mm | 0 m/s | 52 W/m² | - |
| 1777989815 | 17.22° C | 69% | 1016.1 hPa | 0 mm | 0 m/s | 49 W/m² | - |
| 1777989512 | 16.67° C | 73% | 1015.8 hPa | 0 mm | 0 m/s | 48 W/m² | - |
| 1777989208 | 16.67° C | 77% | 1015.8 hPa | 0 mm | 0 m/s | 48 W/m² | - |
| 1777988904 | 16.11° C | 81% | 1015.7 hPa | 0 mm | 0 m/s | 39 W/m² | - |
| 1777988601 | 15.56° C | 82% | 1015.8 hPa | 0 mm | 0 m/s | 35 W/m² | - |
| 1777988298 | 15° C | 84% | 1015.8 hPa | 0 mm | 0 m/s | 34 W/m² | - |
| 1777987995 | 15° C | 86% | 1015.7 hPa | 0 mm | 0 m/s | 33 W/m² | - |
| 1777987690 | 14.44° C | 88% | 1015.9 hPa | 0 mm | 0 m/s | 29 W/m² | - |
* Rain latest hour (hover to see other rain measurements)
** Current wind speed in m/s (hover to see current wind gust speed)